Regional Weather Roundup
Issued by NWS

Home | Current Version | Previous Version | Text Only | Print | Product List | Glossary Off
Versions: 1 2 3 4 5 6 7 8 9 10 11 12 13 14 15 16 17 18 19 20 21 22 23 24 25 26 27 28 29 30 31 32 33 34 35 36 37 38 39 40 41 42 43 44 45 46 47 48 49 50

000
ASUS43 KMPX 190110
RWRMN
WEATHER ROUNDUP FOR MINNESOTA
NATIONAL WEATHER SERVICE TWIN CITIES/CHANHASSEN MN
800 PM CDT FRI APR 18 2014


NOTE: "FAIR" INDICATES FEW OR NO CLOUDS BELOW 12,000 FEET WITH NO
SIGNIFICANT WEATHER AND/OR OBSTRUCTIONS TO VISIBILITY. N/A MEANS
CURRENT SKY AND/OR WEATHER CONDITIONS ARE NOT AVAILABLE.

MNZ060>063-068>070-190200-
   Twin Cities Metro

CITY           SKY/WX    TMP DP  RH WIND       PRES   REMARKS
TWIN CITIES    MOCLDY    49  27  42 SE13      30.22F
ST PAUL        MOCLDY    49  28  44 SE10      30.24F
CRYSTAL        PTCLDY    49  26  41 SE13G20   30.20F
EDEN PRAIRIE   PTCLDY    50  29  44 E13G23    30.19F
LAKEVILLE      PTCLDY    46  30  53 E10       30.21F
SOUTH ST PAUL  PTCLDY    52  27  37 SE8       30.23S
LAKE ELMO      FAIR      46  28  49 E9        30.24S
$$
MNZ001>005-007-008-013>017-022>024-027-028-190200-
   Northwest Minnesota

CITY           SKY/WX    TMP DP  RH WIND       PRES   REMARKS
BEMIDJI        CLOUDY    43  22  44 SE16G24   30.15S
HALLOCK        CLOUDY    46  25  42 SE18G25   30.02F
ROSEAU         CLOUDY    46  19  34 SE14      30.11F
WARROAD        CLOUDY    39  27  60 E10       30.14S
THIEF RVR FALL CLOUDY    45  25  45 SE17G25   30.07F
CROOKSTON      CLOUDY    46  30  53 SE21G26   30.04F
FOSSTON        CLOUDY    43  21  42 SE15G23   30.09F
DETROIT LAKES  CLOUDY    43  27  52 SE24G31   30.08F
MOORHEAD       CLOUDY    46  28  49 SE18G29   30.01F
PARK RAPIDS    CLOUDY    42  22  44 SE15G25   30.15F
$$
MNZ006-009>011-018-025>026-190200-
   North Central Minnesota

CITY           SKY/WX    TMP DP  RH WIND       PRES   REMARKS
BAUDETTE       CLOUDY    42  17  36 E13       30.16F
FLAG ISLAND    MOCLDY    39  16  38 E15G22    30.16F
INTL FALLS     MOCLDY    41  13  31 SE9       30.22F
WASKISH        CLOUDY    45  19  36 E9G17     30.16S
BIG FORK       MOCLDY    43  18  36 SE9G16    30.22S
LONGVILLE      CLOUDY    43  18  36 SE9G24    30.20S
GRAND RAPIDS   CLOUDY    41  16  36 SE15G22   30.23S
CRANE LAKE     PTCLDY    37  12  35 CALM      30.29S
ORR            PTCLDY    41  16  36 SE7       30.23S
COOK           MOCLDY    41  19  42 SE9G17    30.27R
$$
MNZ012-019>021-037-190200-
   Northeast Minnesota

CITY           SKY/WX    TMP DP  RH WIND       PRES   REMARKS
DULUTH         PTCLDY    35  19  52 E13       30.29F WCI  26
ELY            CLEAR     37  21  52 SE10      30.29S
HIBBING        MOCLDY    38  18  44 SE10      30.27S
EVELETH        MOCLDY    36  19  51 SE10      30.29F
DULUTH HARBOR  PTCLDY    32  28  86 NE15      30.33S WCI  22
TWO HARBORS    PTCLDY    32  19  59 NE8G16    30.32F WCI  25
SILVER BAY     CLEAR     28  27  93 NE3       30.35R
GRAND MARAIS     N/A     30  24  78 CALM      30.40F
G MARAIS ARPRT CLEAR     27  18  69 CALM      30.34F
$$
MNZ029>031-032-039>041-046>048-054>057-064-190200-
   West Central Minnesota

CITY           SKY/WX    TMP DP  RH WIND       PRES   REMARKS
FERGUS FALLS   MOCLDY    45  25  45 SE24G37   30.01F
WHEATON        PTCLDY    48  37  66 E29G35    29.99F
MORRIS         CLEAR     45  34  65 E25G32    30.03S
ALEXANDRIA     MOCLDY    43  29  57 E20G29    30.10F
ELBOW LAKE     FAIR      43  30  59 SE24G32   30.04F
WADENA         CLOUDY    39  27  60 E16G25    30.13F
GLENWOOD       PTCLDY    43  30  61 E22G29    30.10F
APPLETON       PTCLDY    48  37  66 E24G30    30.01F
BENSON         PTCLDY    46  36  66 SE18G28   30.06S
ORTONVILLE     MOCLDY    48  36  61 E24G33    29.96F
MADISON        MOCLDY    54  39  58 SE24G33   29.99F
WILLMAR        FAIR      46  34  61 E22       30.12S
$$
MNZ033>034-036-042>043-049>051-058-059-190200-
   Central Minnesota

CITY           SKY/WX    TMP DP  RH WIND       PRES   REMARKS
ST CLOUD       PTCLDY    43  26  51 E8        30.18F
SAUK CENTRE    FAIR      42  30  62 E12       30.15F
PAYNESVILLE    MOCLDY    44  30  59 E10       30.15F
AITKIN         CLOUDY    45  19  36 SE8       30.21S
PINE RIVER     CLOUDY    41  25  52 SE12      30.22F
BRAINERD       CLOUDY    46  23  40 SE10G18   30.21S
STAPLES        CLOUDY    41  25  52 SE12      30.17F
LONG PRAIRIE   FAIR      39  28  65 E10       30.17S
LITTLE FALLS   CLOUDY    39  25  56 E9        30.19S
LITCHFIELD     PTCLDY    45  34  65 E12       30.15F
BUFFALO        PTCLDY    46  29  52 E8        30.19F
MAPLE LAKE     PTCLDY    45  31  57 E7        30.19F
$$
MNZ037-044-045-052-053-190200-
   East Central Minnesota

CITY           SKY/WX    TMP DP  RH WIND       PRES   REMARKS
PRINCETON      MOCLDY    43  25  49 E9        30.22S
MORA           CLOUDY    37  23  56 E8        30.25F
CAMBRIDGE      CLOUDY    45  27  49 E8        30.20F
RUSH CITY      CLOUDY    42  23  46 E7        30.24F
MOOSE LAKE     CLOUDY    37  18  44 E7        30.25S
HINCKLEY       MOCLDY    43  23  45 E9        30.25F
CLOQUET        CLOUDY    36  18  48 E13       30.28F
MCGREGOR       CLOUDY    39  21  48 E13       30.24S
$$
MNZ071>073-080-081-089-090-097-098-190200-
   Southwest Minnesota

CITY           SKY/WX    TMP DP  RH WIND       PRES   REMARKS
MONTEVIDEO     MOCLDY    48  39  71 SE20      30.05F
GRANITE FALLS  MOCLDY    50  37  60 E16G23    30.06F
CANBY          MOCLDY    55  40  58 SE16      29.99S
MARSHALL       MOCLDY    57  34  41 SE20      30.01F
REDWOOD FALLS  PTCLDY    52  37  56 SE18      30.07F
OLIVIA         PTCLDY    46  36  66 E13       30.09S
PIPESTONE      CLOUDY    57  36  44 S16       29.98F
WINDOM         PTCLDY    55  30  38 SE17      30.07F
WORTHINGTON    CLOUDY    57  30  35 SE17G23   30.06F
JACKSON        PTCLDY    55  30  38 SE14G20   30.10S
TRACY          MOCLDY    55  36  48 SE16G22   30.04S
SLAYTON        CLOUDY    55  35  47 SE18G24   30.03F
$$
MNZ065>067-074>077-082>085-091>093-190200-
   South Central Minnesota

CITY           SKY/WX    TMP DP  RH WIND       PRES   REMARKS
MANKATO        CLEAR     50  34  53 SE15      30.16F
NEW ULM        CLEAR     52  36  54 SE15G23   30.12F
ST JAMES       CLEAR     54  34  47 SE16      30.13S
FAIRMONT       CLEAR     54  30  40 SE16      30.14S
GLENCOE        CLEAR     49  33  55 E13       30.15F
FARIBAULT      CLEAR     54  30  40 E8        30.20F
OWATONNA       CLEAR     50  34  53 E14       30.19F
WASECA         CLEAR     50  36  57 E12       30.19F
ALBERT LEA     CLEAR     52  34  50 SE10      30.18F
$$
MNZ078>079-086>088-094>096-190200-
   Southeast Minnesota

CITY           SKY/WX    TMP DP  RH WIND       PRES   REMARKS
ROCHESTER      PTCLDY    46  32  58 SE10      30.23F
RED WING       MOCLDY    48  27  43 SE7       30.24S
STANTON        PTCLDY    50  29  44 E8        30.20F
DODGE CENTER   PTCLDY    52  34  50 SE12      30.22F
WINONA         MOCLDY    48  32  53 SE6       30.27S
AUSTIN         CLEAR     50  34  53 SE8       30.21S
PRESTON        PTCLDY    51  29  42 E8        30.25S
$$
ABBREVIATIONS USED IN REMARKS
   TC - TEMPERATURES IN CELSIUS
  WCI - WIND CHILL INDEX
   HX - HEAT INDEX
  VSB - VISIBILITY
$$


USA.gov is the U.S. government's official web portal to all federal, state and local government web resources and services.